Time,TemperatureF,DewpointF,PressureIn,WindDirection,WindDirectionDegrees,WindSpeedMPH,WindSpeedGustMPH,Humidity,HourlyPrecipIn,Conditions,Clouds,dailyrainin,SoftwareType,DateUTC
2013-03-04 00:00:00,17.8,6.6,30.09,NW,315,10.0,19.0,61,-99.99,,,0.21,meteohub,2013-03-04 05:00:00,
2013-03-04 00:05:00,17.6,6.1,30.09,NNW,338,10.0,19.0,60,-99.99,,,0.21,meteohub,2013-03-04 05:05:00,
2013-03-04 00:10:00,17.6,5.7,30.09,NNW,338,13.0,15.0,59,-99.99,,,0.21,meteohub,2013-03-04 05:10:00,
2013-03-04 00:15:00,17.4,5.5,30.09,NW,315,15.0,15.0,59,-99.99,,,0.21,meteohub,2013-03-04 05:15:00,
2013-03-04 00:20:00,17.6,5.4,30.09,WNW,292,13.0,18.0,58,-99.99,,,0.21,meteohub,2013-03-04 05:20:00,
2013-03-04 00:25:00,17.6,5.4,30.09,WNW,292,11.0,18.0,58,-99.99,,,0.21,meteohub,2013-03-04 05:25:00,
2013-03-04 00:30:00,17.6,5.7,30.09,NW,315,9.0,17.0,59,-99.99,,,0.21,meteohub,2013-03-04 05:30:00,
2013-03-04 00:35:00,17.6,6.1,30.09,WNW,292,13.0,15.0,60,-99.99,,,0.21,meteohub,2013-03-04 05:35:00,
2013-03-04 00:40:00,17.6,5.7,30.09,WNW,292,13.0,17.0,59,-99.99,,,0.21,meteohub,2013-03-04 05:40:00,
2013-03-04 00:45:00,17.4,4.8,30.09,WNW,292,10.0,17.0,57,-99.99,,,0.21,meteohub,2013-03-04 05:45:00,
2013-03-04 00:50:00,17.4,4.8,30.09,WNW,292,13.0,17.0,57,-99.99,,,0.21,meteohub,2013-03-04 05:50:00,
2013-03-04 00:55:00,17.4,4.8,30.09,WNW,292,11.0,16.0,57,-99.99,,,0.21,meteohub,2013-03-04 05:55:00,
2013-03-04 01:00:00,17.4,4.8,30.09,NW,315,11.0,17.0,57,-99.99,,,0.21,meteohub,2013-03-04 06:00:00,
2013-03-04 01:05:00,17.2,4.6,30.09,WNW,292,13.0,17.0,57,-99.99,,,0.21,meteohub,2013-03-04 06:05:00,
2013-03-04 01:10:00,17.2,4.6,30.09,WNW,292,9.0,18.0,57,-99.99,,,0.21,meteohub,2013-03-04 06:10:00,
2013-03-04 01:15:00,17.4,4.8,30.09,WNW,292,9.0,18.0,57,-99.99,,,0.21,meteohub,2013-03-04 06:15:00,
2013-03-04 01:20:00,17.2,4.6,30.09,WNW,292,13.0,18.0,57,-99.99,,,0.21,meteohub,2013-03-04 06:20:00,
2013-03-04 01:26:00,17.2,4.6,30.09,WNW,292,10.0,15.0,57,-99.99,,,0.21,meteohub,2013-03-04 06:26:00,
2013-03-04 01:31:00,17.2,4.6,30.09,WNW,292,8.0,17.0,57,-99.99,,,0.21,meteohub,2013-03-04 06:31:00,
2013-03-04 01:36:00,17.2,4.6,30.09,NW,315,9.0,17.0,57,-99.99,,,0.21,meteohub,2013-03-04 06:36:00,
2013-03-04 01:41:00,17.1,4.5,30.10,NW,315,11.0,17.0,57,-99.99,,,0.21,meteohub,2013-03-04 06:41:00,
2013-03-04 01:46:00,17.1,4.5,30.10,NW,315,10.0,17.0,57,-99.99,,,0.21,meteohub,2013-03-04 06:46:00,
2013-03-04 01:51:00,17.1,4.5,30.10,WNW,292,10.0,17.0,57,-99.99,,,0.21,meteohub,2013-03-04 06:51:00,
2013-03-04 01:56:00,17.1,4.5,30.10,NW,315,9.0,17.0,57,-99.99,,,0.21,meteohub,2013-03-04 06:56:00,
2013-03-04 02:01:00,17.1,4.5,30.10,NW,315,12.0,18.0,57,-99.99,,,0.21,meteohub,2013-03-04 07:01:00,
2013-03-04 02:06:00,17.2,4.6,30.09,NW,315,9.0,19.0,57,-99.99,,,0.21,meteohub,2013-03-04 07:06:00,
2013-03-04 02:11:00,17.2,5.0,30.09,WNW,292,9.0,20.0,58,-99.99,,,0.21,meteohub,2013-03-04 07:11:00,
2013-03-04 02:16:00,17.2,5.0,30.13,WNW,292,12.0,20.0,58,-99.99,,,0.21,meteohub,2013-03-04 07:16:00,
2013-03-04 02:21:00,17.2,5.0,30.13,WNW,292,9.0,20.0,58,-99.99,,,0.21,meteohub,2013-03-04 07:21:00,
2013-03-04 02:26:00,17.2,5.4,30.13,WNW,292,9.0,16.0,59,-99.99,,,0.21,meteohub,2013-03-04 07:26:00,
2013-03-04 02:31:00,17.2,5.0,30.09,NW,315,12.0,16.0,58,-99.99,,,0.21,meteohub,2013-03-04 07:31:00,
2013-03-04 02:36:00,17.2,5.4,30.09,NNW,338,13.0,14.0,59,-99.99,,,0.21,meteohub,2013-03-04 07:36:00,
2013-03-04 02:41:00,17.2,5.4,30.09,NW,315,11.0,14.0,59,-99.99,,,0.21,meteohub,2013-03-04 07:41:00,
2013-03-04 02:46:00,17.2,5.4,30.09,NW,315,10.0,13.0,59,-99.99,,,0.21,meteohub,2013-03-04 07:46:00,
2013-03-04 02:51:00,17.4,5.5,30.09,WNW,292,12.0,13.0,59,-99.99,,,0.21,meteohub,2013-03-04 07:51:00,
2013-03-04 02:56:00,17.4,5.5,30.09,WNW,292,10.0,15.0,59,-99.99,,,0.21,meteohub,2013-03-04 07:56:00,
2013-03-04 03:01:00,17.4,5.2,30.09,NW,315,10.0,15.0,58,-99.99,,,0.21,meteohub,2013-03-04 08:01:00,
2013-03-04 03:06:00,17.4,5.2,30.09,WNW,292,8.0,17.0,58,-99.99,,,0.21,meteohub,2013-03-04 08:06:00,
2013-03-04 03:11:00,17.2,5.4,30.09,NW,315,8.0,17.0,59,-99.99,,,0.21,meteohub,2013-03-04 08:11:00,
2013-03-04 03:16:00,17.2,5.4,30.13,NW,315,14.0,17.0,59,-99.99,,,0.21,meteohub,2013-03-04 08:16:00,
2013-03-04 03:21:00,17.4,5.5,30.13,NW,315,10.0,16.0,59,-99.99,,,0.21,meteohub,2013-03-04 08:21:00,
2013-03-04 03:26:00,17.2,5.4,30.13,NW,315,8.0,16.0,59,-99.99,,,0.21,meteohub,2013-03-04 08:26:00,
2013-03-04 03:31:00,17.2,5.4,30.09,NW,315,11.0,16.0,59,-99.99,,,0.21,meteohub,2013-03-04 08:31:00,
2013-03-04 03:36:00,17.4,5.5,30.09,NW,315,11.0,16.0,59,-99.99,,,0.21,meteohub,2013-03-04 08:36:00,
2013-03-04 03:41:00,17.4,5.5,30.09,NW,315,9.0,17.0,59,-99.99,,,0.21,meteohub,2013-03-04 08:41:00,
2013-03-04 03:46:00,17.2,5.7,30.09,NW,315,11.0,17.0,60,-99.99,,,0.21,meteohub,2013-03-04 08:46:00,
2013-03-04 03:51:00,17.4,5.9,30.09,NW,315,13.0,17.0,60,-99.99,,,0.21,meteohub,2013-03-04 08:51:00,
2013-03-04 03:56:00,17.4,5.9,30.09,WNW,292,8.0,22.0,60,-99.99,,,0.21,meteohub,2013-03-04 08:56:00,
2013-03-04 04:01:00,17.2,5.7,30.09,WNW,292,11.0,22.0,60,-99.99,,,0.21,meteohub,2013-03-04 09:01:00,
2013-03-04 04:06:00,17.2,5.7,30.09,NW,315,8.0,17.0,60,-99.99,,,0.21,meteohub,2013-03-04 09:06:00,
2013-03-04 04:11:00,17.4,5.9,30.09,NNW,338,9.0,15.0,60,-99.99,,,0.21,meteohub,2013-03-04 09:11:00,
2013-03-04 04:16:00,17.4,5.9,30.09,WNW,292,11.0,13.0,60,-99.99,,,0.21,meteohub,2013-03-04 09:16:00,
2013-03-04 04:21:00,17.4,5.9,30.09,NW,315,8.0,17.0,60,-99.99,,,0.21,meteohub,2013-03-04 09:21:00,
2013-03-04 04:26:00,17.4,5.9,30.09,WNW,292,11.0,17.0,60,-99.99,,,0.21,meteohub,2013-03-04 09:26:00,
2013-03-04 04:31:00,17.4,5.9,30.13,NNW,338,10.0,15.0,60,-99.99,,,0.21,meteohub,2013-03-04 09:31:00,
2013-03-04 04:36:00,17.4,5.9,30.13,NW,315,11.0,15.0,60,-99.99,,,0.21,meteohub,2013-03-04 09:36:00,
2013-03-04 04:41:00,17.4,5.9,30.13,NW,315,10.0,13.0,60,-99.99,,,0.21,meteohub,2013-03-04 09:41:00,
2013-03-04 04:46:00,17.4,5.9,30.13,NW,315,9.0,13.0,60,-99.99,,,0.21,meteohub,2013-03-04 09:46:00,
2013-03-04 04:51:00,17.4,5.9,30.13,WNW,292,10.0,13.0,60,-99.99,,,0.21,meteohub,2013-03-04 09:51:00,
2013-03-04 04:56:00,17.4,5.9,30.13,WNW,292,10.0,19.0,60,-99.99,,,0.21,meteohub,2013-03-04 09:56:00,
2013-03-04 05:01:00,17.4,5.9,30.13,WNW,292,7.0,19.0,60,-99.99,,,0.21,meteohub,2013-03-04 10:01:00,
2013-03-04 05:06:00,17.4,6.3,30.13,NW,315,9.0,19.0,61,-99.99,,,0.21,meteohub,2013-03-04 10:06:00,
2013-03-04 05:11:00,17.4,6.3,30.13,WNW,292,11.0,13.0,61,-99.99,,,0.21,meteohub,2013-03-04 10:11:00,
2013-03-04 05:16:00,17.4,6.3,30.13,NW,315,11.0,13.0,61,-99.99,,,0.21,meteohub,2013-03-04 10:16:00,
2013-03-04 05:21:00,17.4,6.3,30.13,NW,315,6.0,18.0,61,-99.99,,,0.21,meteohub,2013-03-04 10:21:00,
2013-03-04 05:26:00,17.4,6.3,30.13,WNW,292,8.0,18.0,61,-99.99,,,0.21,meteohub,2013-03-04 10:26:00,
2013-03-04 05:31:00,17.4,6.3,30.16,NNE,22,11.0,18.0,61,-99.99,,,0.21,meteohub,2013-03-04 10:31:00,
2013-03-04 05:36:00,17.4,6.3,30.16,NW,315,8.0,14.0,61,-99.99,,,0.21,meteohub,2013-03-04 10:36:00,
2013-03-04 05:41:00,17.4,6.3,30.16,WNW,292,8.0,13.0,61,-99.99,,,0.21,meteohub,2013-03-04 10:41:00,
2013-03-04 05:46:00,17.4,6.3,30.16,NNW,338,11.0,13.0,61,-99.99,,,0.21,meteohub,2013-03-04 10:46:00,
2013-03-04 05:51:00,17.4,6.3,30.16,WNW,292,7.0,11.0,61,-99.99,,,0.21,meteohub,2013-03-04 10:51:00,
2013-03-04 05:56:00,17.4,6.3,30.16,WNW,292,8.0,13.0,61,-99.99,,,0.21,meteohub,2013-03-04 10:56:00,
2013-03-04 06:01:00,17.4,6.6,30.16,WNW,292,6.0,13.0,62,-99.99,,,0.21,meteohub,2013-03-04 11:01:00,
2013-03-04 06:07:00,17.4,6.6,30.16,NNW,338,10.0,13.0,62,-99.99,,,0.21,meteohub,2013-03-04 11:07:00,
2013-03-04 06:12:00,17.4,6.3,30.16,NW,315,10.0,13.0,61,-99.99,,,0.21,meteohub,2013-03-04 11:12:00,
2013-03-04 06:17:00,17.2,6.1,30.17,WNW,292,8.0,13.0,61,-99.99,,,0.21,meteohub,2013-03-04 11:17:00,
2013-03-04 06:22:00,17.2,6.1,30.17,NW,315,6.0,11.0,61,-99.99,,,0.21,meteohub,2013-03-04 11:22:00,
2013-03-04 06:27:00,17.1,6.3,30.17,WNW,292,8.0,11.0,62,-99.99,,,0.21,meteohub,2013-03-04 11:27:00,
2013-03-04 06:32:00,17.1,6.3,30.17,NW,315,7.0,11.0,62,-99.99,,,0.21,meteohub,2013-03-04 11:32:00,
2013-03-04 06:37:00,17.1,6.3,30.17,NW,315,9.0,12.0,62,-99.99,,,0.21,meteohub,2013-03-04 11:37:00,
2013-03-04 06:42:00,17.1,6.6,30.17,WNW,292,6.0,13.0,63,-99.99,,,0.21,meteohub,2013-03-04 11:42:00,
2013-03-04 06:47:00,17.1,6.6,30.17,North,0,6.0,13.0,63,-99.99,,,0.21,meteohub,2013-03-04 11:47:00,
2013-03-04 06:52:00,16.9,6.4,30.17,WSW,248,5.0,13.0,63,-99.99,,,0.21,meteohub,2013-03-04 11:52:00,
2013-03-04 06:57:00,17.1,6.6,30.17,WNW,292,6.0,13.0,63,-99.99,,,0.21,meteohub,2013-03-04 11:57:00,
2013-03-04 07:02:00,17.1,7.0,30.20,NW,315,5.0,11.0,64,-99.99,,,0.21,meteohub,2013-03-04 12:02:00,
2013-03-04 07:07:00,17.1,7.0,30.20,NNW,338,8.0,11.0,64,-99.99,,,0.21,meteohub,2013-03-04 12:07:00,
2013-03-04 07:12:00,17.4,7.3,30.20,NW,315,6.0,10.0,64,-99.99,,,0.21,meteohub,2013-03-04 12:12:00,
2013-03-04 07:17:00,17.4,7.3,30.20,WNW,292,6.0,10.0,64,-99.99,,,0.21,meteohub,2013-03-04 12:17:00,
2013-03-04 07:22:00,17.4,7.3,30.20,WNW,292,5.0,10.0,64,-99.99,,,0.21,meteohub,2013-03-04 12:22:00,
2013-03-04 07:27:00,17.6,7.5,30.19,WNW,292,8.0,10.0,64,-99.99,,,0.21,meteohub,2013-03-04 12:27:00,
2013-03-04 07:32:00,18.0,7.9,30.19,NNW,338,6.0,10.0,64,-99.99,,,0.21,meteohub,2013-03-04 12:32:00,
2013-03-04 07:37:00,18.1,8.1,30.19,WNW,292,7.0,10.0,64,-99.99,,,0.21,meteohub,2013-03-04 12:37:00,
2013-03-04 07:42:00,18.3,8.2,30.19,WNW,292,7.0,10.0,64,-99.99,,,0.21,meteohub,2013-03-04 12:42:00,
2013-03-04 07:47:00,18.5,8.1,30.19,NW,315,6.0,9.0,63,-99.99,,,0.21,meteohub,2013-03-04 12:47:00,
2013-03-04 07:52:00,18.5,7.7,30.19,NW,315,5.0,10.0,62,-99.99,,,0.21,meteohub,2013-03-04 12:52:00,
2013-03-04 07:57:00,18.7,7.9,30.19,WNW,292,6.0,11.0,62,-99.99,,,0.21,meteohub,2013-03-04 12:57:00,
2013-03-04 08:02:00,18.7,7.5,30.22,WNW,292,6.0,11.0,61,-99.99,,,0.21,meteohub,2013-03-04 13:02:00,
2013-03-04 08:07:00,18.9,8.1,30.22,WNW,292,10.0,13.0,62,-99.99,,,0.21,meteohub,2013-03-04 13:07:00,
2013-03-04 08:12:00,19.0,7.9,30.22,WNW,292,6.0,13.0,61,-99.99,,,0.21,meteohub,2013-03-04 13:12:00,
2013-03-04 08:17:00,19.2,8.1,30.22,WNW,292,4.0,13.0,61,-99.99,,,0.21,meteohub,2013-03-04 13:17:00,
2013-03-04 08:22:00,19.4,8.2,30.21,West,270,6.0,13.0,61,-99.99,,,0.21,meteohub,2013-03-04 13:22:00,
2013-03-04 08:27:00,19.6,8.1,30.21,NNW,338,6.0,11.0,60,-99.99,,,0.21,meteohub,2013-03-04 13:27:00,
2013-03-04 08:32:00,19.8,7.7,30.21,NW,315,9.0,12.0,59,-99.99,,,0.21,meteohub,2013-03-04 13:32:00,
2013-03-04 08:37:00,19.9,7.9,30.21,NW,315,8.0,13.0,59,-99.99,,,0.21,meteohub,2013-03-04 13:37:00,
2013-03-04 08:42:00,20.1,7.7,30.21,NW,315,9.0,16.0,58,-99.99,,,0.21,meteohub,2013-03-04 13:42:00,
2013-03-04 08:47:00,20.3,7.9,30.20,NW,315,9.0,16.0,58,-99.99,,,0.21,meteohub,2013-03-04 13:47:00,
2013-03-04 08:52:00,20.5,8.1,30.20,WNW,292,6.0,16.0,58,-99.99,,,0.21,meteohub,2013-03-04 13:52:00,
2013-03-04 08:57:00,20.8,8.1,30.20,NW,315,6.0,10.0,57,-99.99,,,0.21,meteohub,2013-03-04 13:57:00,
2013-03-04 09:02:00,21.0,8.2,30.20,WNW,292,7.0,11.0,57,-99.99,,,0.21,meteohub,2013-03-04 14:02:00,
2013-03-04 09:07:00,21.4,8.1,30.19,NW,315,11.0,11.0,56,-99.99,,,0.21,meteohub,2013-03-04 14:07:00,
2013-03-04 09:12:00,21.6,7.5,30.19,WNW,292,10.0,11.0,54,-99.99,,,0.21,meteohub,2013-03-04 14:12:00,
2013-03-04 09:17:00,21.6,7.5,30.19,WNW,292,9.0,11.0,54,-99.99,,,0.21,meteohub,2013-03-04 14:17:00,
2013-03-04 09:22:00,21.9,7.5,30.19,WNW,292,10.0,13.0,53,-99.99,,,0.21,meteohub,2013-03-04 14:22:00,
2013-03-04 09:27:00,22.1,7.2,30.19,NNW,338,10.0,15.0,52,-99.99,,,0.21,meteohub,2013-03-04 14:27:00,
2013-03-04 09:32:00,22.5,7.9,30.19,WNW,292,7.0,15.0,53,-99.99,,,0.21,meteohub,2013-03-04 14:32:00,
2013-03-04 09:37:00,22.6,8.1,30.18,NW,315,8.0,15.0,53,-99.99,,,0.21,meteohub,2013-03-04 14:37:00,
2013-03-04 09:42:00,23.0,8.4,30.18,WNW,292,6.0,15.0,53,-99.99,,,0.21,meteohub,2013-03-04 14:42:00,
2013-03-04 09:47:00,23.4,8.4,30.18,NW,315,8.0,15.0,52,-99.99,,,0.21,meteohub,2013-03-04 14:47:00,
2013-03-04 09:52:00,23.5,8.6,30.17,NW,315,8.0,15.0,52,-99.99,,,0.21,meteohub,2013-03-04 14:52:00,
2013-03-04 09:57:00,23.9,7.5,30.17,North,0,9.0,13.0,49,-99.99,,,0.21,meteohub,2013-03-04 14:57:00,
2013-03-04 10:02:00,24.3,7.9,30.17,West,270,7.0,13.0,49,-99.99,,,0.21,meteohub,2013-03-04 15:02:00,
2013-03-04 10:07:00,24.4,7.5,30.17,WNW,292,13.0,15.0,48,-99.99,,,0.21,meteohub,2013-03-04 15:07:00,
2013-03-04 10:12:00,25.0,7.7,30.16,NW,315,13.0,15.0,47,-99.99,,,0.21,meteohub,2013-03-04 15:12:00,
2013-03-04 10:17:00,25.3,7.0,30.19,WNW,292,8.0,15.0,45,-99.99,,,0.21,meteohub,2013-03-04 15:17:00,
2013-03-04 10:22:00,25.5,7.2,30.19,NW,315,9.0,13.0,45,-99.99,,,0.21,meteohub,2013-03-04 15:22:00,
2013-03-04 10:26:00,26.1,7.2,30.19,NW,315,9.0,16.0,44,-99.99,,,0.21,meteohub,2013-03-04 15:26:00,
2013-03-04 10:32:00,26.2,6.3,30.15,WNW,292,8.0,16.0,42,-99.99,,,0.21,meteohub,2013-03-04 15:32:00,
2013-03-04 10:36:00,26.8,6.8,30.15,WNW,292,9.0,16.0,42,-99.99,,,0.21,meteohub,2013-03-04 15:36:00,
2013-03-04 10:41:00,27.1,6.6,30.14,WNW,292,6.0,13.0,41,-99.99,,,0.21,meteohub,2013-03-04 15:41:00,
2013-03-04 10:47:00,27.3,6.8,30.14,NW,315,9.0,13.0,41,-99.99,,,0.21,meteohub,2013-03-04 15:47:00,
2013-03-04 10:52:00,27.7,7.2,30.14,WNW,292,7.0,13.0,41,-99.99,,,0.21,meteohub,2013-03-04 15:52:00,
2013-03-04 10:57:00,28.0,6.8,30.14,WNW,292,8.0,13.0,40,-99.99,,,0.21,meteohub,2013-03-04 15:57:00,
2013-03-04 11:02:00,28.2,5.4,30.13,WNW,292,8.0,15.0,37,-99.99,,,0.21,meteohub,2013-03-04 16:02:00,
2013-03-04 11:07:00,28.6,5.0,30.13,NW,315,9.0,15.0,36,-99.99,,,0.21,meteohub,2013-03-04 16:07:00,
2013-03-04 11:12:00,29.1,5.0,30.13,NW,315,6.0,15.0,35,-99.99,,,0.21,meteohub,2013-03-04 16:12:00,
2013-03-04 11:17:00,29.5,5.2,30.16,WNW,292,6.0,11.0,35,-99.99,,,0.21,meteohub,2013-03-04 16:17:00,
2013-03-04 11:22:00,29.8,5.5,30.15,WNW,292,5.0,11.0,35,-99.99,,,0.21,meteohub,2013-03-04 16:22:00,
2013-03-04 11:27:00,30.2,5.9,30.15,NW,315,4.0,11.0,35,-99.99,,,0.21,meteohub,2013-03-04 16:27:00,
2013-03-04 11:32:00,30.7,5.7,30.14,West,270,5.0,11.0,34,-99.99,,,0.21,meteohub,2013-03-04 16:32:00,
2013-03-04 11:37:00,31.1,6.1,30.14,NW,315,6.0,11.0,34,-99.99,,,0.21,meteohub,2013-03-04 16:37:00,
2013-03-04 11:42:00,31.3,5.5,30.14,NW,315,4.0,11.0,33,-99.99,,,0.21,meteohub,2013-03-04 16:42:00,
2013-03-04 11:47:00,31.8,6.1,30.17,WNW,292,5.0,10.0,33,-99.99,,,0.21,meteohub,2013-03-04 16:47:00,
2013-03-04 11:52:00,32.5,6.6,30.17,NW,315,5.0,10.0,33,-99.99,,,0.21,meteohub,2013-03-04 16:52:00,
2013-03-04 11:57:00,32.7,6.3,30.16,NW,315,8.0,9.0,32,-99.99,,,0.21,meteohub,2013-03-04 16:57:00,
2013-03-04 12:02:00,32.9,5.7,30.16,NW,315,5.0,9.0,31,-99.99,,,0.21,meteohub,2013-03-04 17:02:00,
2013-03-04 12:07:00,33.1,5.9,30.16,WNW,292,6.0,9.0,31,-99.99,,,0.21,meteohub,2013-03-04 17:07:00,
2013-03-04 12:12:00,33.3,5.9,30.16,NNW,338,8.0,9.0,31,-99.99,,,0.21,meteohub,2013-03-04 17:12:00,
2013-03-04 12:17:00,33.8,6.4,30.15,NW,315,6.0,9.0,31,-99.99,,,0.21,meteohub,2013-03-04 17:17:00,
2013-03-04 12:22:00,34.0,6.6,30.15,NW,315,9.0,9.0,31,-99.99,,,0.21,meteohub,2013-03-04 17:22:00,
2013-03-04 12:27:00,34.2,6.8,30.15,WNW,292,5.0,10.0,31,-99.99,,,0.21,meteohub,2013-03-04 17:27:00,
2013-03-04 12:32:00,34.5,7.2,30.15,WNW,292,6.0,10.0,31,-99.99,,,0.21,meteohub,2013-03-04 17:32:00,
2013-03-04 12:37:00,34.9,7.3,30.14,NW,315,6.0,10.0,31,-99.99,,,0.21,meteohub,2013-03-04 17:37:00,
2013-03-04 12:42:00,35.2,7.7,30.14,North,0,4.0,9.0,31,-99.99,,,0.21,meteohub,2013-03-04 17:42:00,
2013-03-04 12:47:00,35.6,7.3,30.14,NE,45,6.0,9.0,30,-99.99,,,0.21,meteohub,2013-03-04 17:47:00,
2013-03-04 12:52:00,36.0,7.7,30.14,NW,315,4.0,10.0,30,-99.99,,,0.21,meteohub,2013-03-04 17:52:00,
2013-03-04 12:57:00,36.3,7.9,30.13,NW,315,4.0,10.0,30,-99.99,,,0.21,meteohub,2013-03-04 17:57:00,
2013-03-04 13:02:00,36.5,8.1,30.13,NW,315,5.0,10.0,30,-99.99,,,0.21,meteohub,2013-03-04 18:02:00,
2013-03-04 13:07:00,37.0,8.6,30.13,NW,315,3.0,8.0,30,-99.99,,,0.21,meteohub,2013-03-04 18:07:00,
2013-03-04 13:12:00,37.6,9.0,30.12,NW,315,3.0,8.0,30,-99.99,,,0.21,meteohub,2013-03-04 18:12:00,
2013-03-04 13:17:00,38.1,9.5,30.08,WNW,292,1.0,8.0,30,-99.99,,,0.21,meteohub,2013-03-04 18:17:00,
2013-03-04 13:22:00,38.8,10.2,30.08,NW,315,7.0,8.0,30,-99.99,,,0.21,meteohub,2013-03-04 18:22:00,
2013-03-04 13:27:00,40.5,11.5,30.06,West,270,3.0,7.0,30,-99.99,,,0.21,meteohub,2013-03-04 18:27:00,
2013-03-04 13:29:00,40.6,10.9,30.06,NW,315,3.0,7.0,29,-99.99,,,0.21,meteohub,2013-03-04 18:29:00,
2013-03-04 13:30:00,40.6,10.9,30.06,NNW,338,4.0,7.0,29,-99.99,,,0.21,meteohub,2013-03-04 18:30:00,
2013-03-04 13:35:00,41.4,11.5,30.06,NNE,22,4.0,7.0,29,-99.99,,,0.21,meteohub,2013-03-04 18:35:00,
2013-03-04 13:40:00,42.3,12.4,30.05,NW,315,5.0,6.0,29,-99.99,,,0.21,meteohub,2013-03-04 18:40:00,
2013-03-04 13:45:00,43.7,12.7,30.04,WNW,292,5.0,6.0,28,-99.99,,,0.21,meteohub,2013-03-04 18:45:00,
2013-03-04 13:50:00,44.6,13.6,30.03,WNW,292,1.0,6.0,28,-99.99,,,0.21,meteohub,2013-03-04 18:50:00,
2013-03-04 13:55:00,45.3,14.2,30.02,WNW,292,6.0,6.0,28,-99.99,,,0.21,meteohub,2013-03-04 18:55:00,
2013-03-04 14:00:00,46.6,14.5,30.01,North,0,2.0,6.0,27,-99.99,,,0.21,meteohub,2013-03-04 19:00:00,
2013-03-04 14:05:00,46.2,14.2,30.01,West,270,0.0,6.0,27,-99.99,,,0.21,meteohub,2013-03-04 19:05:00,
2013-03-04 14:10:00,46.6,14.5,30.01,WNW,292,3.0,6.0,27,-99.99,,,0.21,meteohub,2013-03-04 19:10:00,
2013-03-04 14:15:00,46.6,11.8,30.01,NW,315,5.0,6.0,24,-99.99,,,0.21,meteohub,2013-03-04 19:15:00,
2013-03-04 14:20:00,46.6,11.8,30.01,WNW,292,3.0,6.0,24,-99.99,,,0.21,meteohub,2013-03-04 19:20:00,
2013-03-04 14:26:00,47.1,10.4,30.01,NW,315,4.0,7.0,22,-99.99,,,0.21,meteohub,2013-03-04 19:26:00,
2013-03-04 14:31:00,46.9,10.2,30.01,NW,315,4.0,7.0,22,-99.99,,,0.21,meteohub,2013-03-04 19:31:00,
2013-03-04 14:36:00,46.6,6.6,30.01,NW,315,7.0,7.0,19,-99.99,,,0.21,meteohub,2013-03-04 19:36:00,
2013-03-04 14:41:00,46.4,9.7,30.01,NNW,338,3.0,7.0,22,-99.99,,,0.21,meteohub,2013-03-04 19:41:00,
2013-03-04 14:46:00,46.9,7.0,30.01,NW,315,3.0,7.0,19,-99.99,,,0.21,meteohub,2013-03-04 19:46:00,
2013-03-04 14:51:00,47.1,7.2,30.01,WNW,292,1.0,7.0,19,-99.99,,,0.21,meteohub,2013-03-04 19:51:00,
2013-03-04 14:56:00,46.8,6.8,30.01,NE,45,3.0,6.0,19,-99.99,,,0.21,meteohub,2013-03-04 19:56:00,
2013-03-04 15:01:00,47.1,7.2,30.01,North,0,2.0,6.0,19,-99.99,,,0.21,meteohub,2013-03-04 20:01:00,
2013-03-04 15:06:00,47.1,7.2,30.01,WNW,292,2.0,5.0,19,-99.99,,,0.21,meteohub,2013-03-04 20:06:00,
2013-03-04 15:11:00,46.4,6.4,30.01,NW,315,4.0,5.0,19,-99.99,,,0.21,meteohub,2013-03-04 20:11:00,
2013-03-04 15:16:00,46.0,7.3,30.02,WNW,292,4.0,6.0,20,-99.99,,,0.21,meteohub,2013-03-04 20:16:00,
2013-03-04 15:21:00,46.2,7.5,30.01,WNW,292,1.0,6.0,20,-99.99,,,0.21,meteohub,2013-03-04 20:21:00,
2013-03-04 15:26:00,46.6,6.6,30.01,NW,315,2.0,6.0,19,-99.99,,,0.21,meteohub,2013-03-04 20:26:00,
2013-03-04 15:31:00,45.7,7.0,30.02,NNW,338,3.0,6.0,20,-99.99,,,0.21,meteohub,2013-03-04 20:31:00,
2013-03-04 15:36:00,45.5,3.4,30.02,West,270,2.0,6.0,17,-99.99,,,0.21,meteohub,2013-03-04 20:36:00,
2013-03-04 15:41:00,46.0,7.3,30.02,NW,315,3.0,6.0,20,-99.99,,,0.21,meteohub,2013-03-04 20:41:00,
2013-03-04 15:46:00,46.2,7.5,30.01,NW,315,3.0,6.0,20,-99.99,,,0.21,meteohub,2013-03-04 20:46:00,
2013-03-04 15:51:00,45.5,3.4,30.02,WNW,292,3.0,6.0,17,-99.99,,,0.21,meteohub,2013-03-04 20:51:00,
2013-03-04 15:56:00,45.7,3.4,30.02,NW,315,3.0,6.0,17,-99.99,,,0.21,meteohub,2013-03-04 20:56:00,
2013-03-04 16:01:00,45.7,3.4,30.02,WNW,292,2.0,8.0,17,-99.99,,,0.21,meteohub,2013-03-04 21:01:00,
2013-03-04 16:06:00,45.7,3.4,30.02,NNE,22,6.0,8.0,17,-99.99,,,0.21,meteohub,2013-03-04 21:06:00,
2013-03-04 16:11:00,45.3,3.2,30.02,WNW,292,4.0,8.0,17,-99.99,,,0.21,meteohub,2013-03-04 21:11:00,
2013-03-04 16:16:00,45.3,3.2,30.02,NW,315,1.0,7.0,17,-99.99,,,0.21,meteohub,2013-03-04 21:16:00,
2013-03-04 16:21:00,45.0,6.4,30.03,WNW,292,2.0,7.0,20,-99.99,,,0.21,meteohub,2013-03-04 21:21:00,
2013-03-04 16:26:00,45.0,6.4,30.03,WNW,292,0.0,7.0,20,-99.99,,,0.21,meteohub,2013-03-04 21:26:00,
2013-03-04 16:31:00,44.6,6.1,30.03,NW,315,4.0,4.0,20,-99.99,,,0.21,meteohub,2013-03-04 21:31:00,
2013-03-04 16:36:00,44.6,6.1,30.03,WNW,292,3.0,4.0,20,-99.99,,,0.21,meteohub,2013-03-04 21:36:00,
2013-03-04 16:41:00,44.4,5.9,30.03,NW,315,3.0,4.0,20,-99.99,,,0.21,meteohub,2013-03-04 21:41:00,
2013-03-04 16:46:00,43.9,5.5,30.04,NW,315,1.0,5.0,20,-99.99,,,0.21,meteohub,2013-03-04 21:46:00,
2013-03-04 16:51:00,43.9,5.5,30.04,WNW,292,2.0,5.0,20,-99.99,,,0.21,meteohub,2013-03-04 21:51:00,
2013-03-04 16:56:00,44.2,5.7,30.03,WNW,292,0.0,5.0,20,-99.99,,,0.21,meteohub,2013-03-04 21:56:00,
2013-03-04 17:01:00,44.6,6.1,30.03,WNW,292,0.0,4.0,20,-99.99,,,0.21,meteohub,2013-03-04 22:01:00,
2013-03-04 17:06:00,44.6,6.1,30.03,WNW,292,0.0,4.0,20,-99.99,,,0.21,meteohub,2013-03-04 22:06:00,
2013-03-04 17:11:00,44.2,5.7,30.03,WNW,292,0.0,3.0,20,-99.99,,,0.21,meteohub,2013-03-04 22:11:00,
2013-03-04 17:16:00,43.9,5.5,30.04,WNW,292,0.0,3.0,20,-99.99,,,0.21,meteohub,2013-03-04 22:16:00,
2013-03-04 17:21:00,43.5,5.2,30.04,NW,315,0.0,2.0,20,-99.99,,,0.21,meteohub,2013-03-04 22:21:00,
2013-03-04 17:26:00,43.0,4.8,30.04,WNW,292,0.0,0.0,20,-99.99,,,0.21,meteohub,2013-03-04 22:26:00,
2013-03-04 17:31:00,42.4,5.4,30.05,WNW,292,0.0,0.0,21,-99.99,,,0.21,meteohub,2013-03-04 22:31:00,
2013-03-04 17:36:00,41.9,4.8,30.05,WNW,292,0.0,0.0,21,-99.99,,,0.21,meteohub,2013-03-04 22:36:00,
2013-03-04 17:41:00,41.4,4.5,30.06,NW,315,0.0,0.0,21,-99.99,,,0.21,meteohub,2013-03-04 22:41:00,
2013-03-04 17:46:00,40.6,3.9,30.06,NNW,338,2.0,2.0,21,-99.99,,,0.21,meteohub,2013-03-04 22:46:00,
2013-03-04 17:51:00,40.3,3.6,30.06,WNW,292,2.0,3.0,21,-99.99,,,0.21,meteohub,2013-03-04 22:51:00,
2013-03-04 17:57:00,39.9,3.2,30.07,WNW,292,2.0,3.0,21,-99.99,,,0.21,meteohub,2013-03-04 22:57:00,
2013-03-04 18:01:00,39.6,3.0,30.07,NW,315,2.0,3.0,21,-99.99,,,0.21,meteohub,2013-03-04 23:01:00,
2013-03-04 18:07:00,39.2,2.7,30.07,NW,315,2.0,3.0,21,-99.99,,,0.21,meteohub,2013-03-04 23:07:00,
2013-03-04 18:12:00,38.7,2.1,30.08,NW,315,2.0,3.0,21,-99.99,,,0.21,meteohub,2013-03-04 23:12:00,
2013-03-04 18:17:00,38.3,4.8,30.08,WNW,292,3.0,3.0,24,-99.99,,,0.21,meteohub,2013-03-04 23:17:00,
2013-03-04 18:22:00,37.9,4.5,30.09,NW,315,3.0,4.0,24,-99.99,,,0.21,meteohub,2013-03-04 23:22:00,
2013-03-04 18:27:00,37.6,4.1,30.09,NW,315,2.0,4.0,24,-99.99,,,0.21,meteohub,2013-03-04 23:27:00,
2013-03-04 18:32:00,37.4,3.9,30.09,NW,315,2.0,4.0,24,-99.99,,,0.21,meteohub,2013-03-04 23:32:00,
2013-03-04 18:37:00,36.9,3.6,30.09,NW,315,3.0,4.0,24,-99.99,,,0.21,meteohub,2013-03-04 23:37:00,
2013-03-04 18:42:00,36.3,3.0,30.10,NW,315,3.0,3.0,24,-99.99,,,0.21,meteohub,2013-03-04 23:42:00,
2013-03-04 18:47:00,35.8,2.7,30.14,NW,315,2.0,3.0,24,-99.99,,,0.21,meteohub,2013-03-04 23:47:00,
2013-03-04 18:52:00,35.2,4.6,30.14,WNW,292,3.0,3.0,27,-99.99,,,0.21,meteohub,2013-03-04 23:52:00,
2013-03-04 18:57:00,34.9,4.5,30.14,NW,315,3.0,3.0,27,-99.99,,,0.21,meteohub,2013-03-04 23:57:00,
2013-03-04 19:02:00,34.3,3.9,30.15,NW,315,3.0,4.0,27,-99.99,,,0.21,meteohub,2013-03-05 00:02:00,
2013-03-04 19:07:00,34.2,6.1,30.15,NW,315,3.0,4.0,30,-99.99,,,0.21,meteohub,2013-03-05 00:07:00,
2013-03-04 19:12:00,33.8,5.7,30.15,NW,315,3.0,4.0,30,-99.99,,,0.21,meteohub,2013-03-05 00:12:00,
2013-03-04 19:17:00,33.8,5.7,30.15,NW,315,3.0,4.0,30,-99.99,,,0.21,meteohub,2013-03-05 00:17:00,
2013-03-04 19:22:00,33.8,5.7,30.15,NW,315,3.0,4.0,30,-99.99,,,0.21,meteohub,2013-03-05 00:22:00,
2013-03-04 19:27:00,33.6,6.3,30.16,NW,315,4.0,4.0,31,-99.99,,,0.21,meteohub,2013-03-05 00:27:00,
2013-03-04 19:32:00,33.4,6.1,30.16,NW,315,3.0,5.0,31,-99.99,,,0.21,meteohub,2013-03-05 00:32:00,
2013-03-04 19:37:00,33.4,6.1,30.16,NW,315,3.0,5.0,31,-99.99,,,0.21,meteohub,2013-03-05 00:37:00,
2013-03-04 19:42:00,33.4,6.1,30.16,NW,315,3.0,4.0,31,-99.99,,,0.21,meteohub,2013-03-05 00:42:00,
2013-03-04 19:47:00,33.4,6.1,30.16,NW,315,3.0,4.0,31,-99.99,,,0.21,meteohub,2013-03-05 00:47:00,
2013-03-04 19:52:00,33.3,5.9,30.16,NW,315,3.0,4.0,31,-99.99,,,0.21,meteohub,2013-03-05 00:52:00,
2013-03-04 19:57:00,33.4,6.1,30.16,NNW,338,2.0,4.0,31,-99.99,,,0.21,meteohub,2013-03-05 00:57:00,
2013-03-04 20:02:00,33.6,6.3,30.16,North,0,3.0,4.0,31,-99.99,,,0.21,meteohub,2013-03-05 01:02:00,
2013-03-04 20:07:00,33.6,6.3,30.16,NW,315,3.0,4.0,31,-99.99,,,0.21,meteohub,2013-03-05 01:07:00,
2013-03-04 20:12:00,33.8,6.4,30.15,NW,315,2.0,4.0,31,-99.99,,,0.21,meteohub,2013-03-05 01:12:00,
2013-03-04 20:17:00,33.8,6.4,30.15,NW,315,3.0,4.0,31,-99.99,,,0.21,meteohub,2013-03-05 01:17:00,
2013-03-04 20:22:00,33.8,6.4,30.15,NW,315,2.0,4.0,31,-99.99,,,0.21,meteohub,2013-03-05 01:22:00,
2013-03-04 20:27:00,34.0,6.6,30.15,WNW,292,2.0,4.0,31,-99.99,,,0.21,meteohub,2013-03-05 01:27:00,
2013-03-04 20:32:00,33.8,6.4,30.12,NW,315,3.0,4.0,31,-99.99,,,0.21,meteohub,2013-03-05 01:32:00,
2013-03-04 20:37:00,33.8,6.4,30.12,NW,315,2.0,4.0,31,-99.99,,,0.21,meteohub,2013-03-05 01:37:00,
2013-03-04 20:42:00,33.8,6.4,30.12,NW,315,2.0,3.0,31,-99.99,,,0.21,meteohub,2013-03-05 01:42:00,
2013-03-04 20:47:00,33.8,7.2,30.15,North,0,2.0,3.0,32,-99.99,,,0.21,meteohub,2013-03-05 01:47:00,
2013-03-04 20:52:00,33.8,7.2,30.15,NW,315,3.0,3.0,32,-99.99,,,0.21,meteohub,2013-03-05 01:52:00,
2013-03-04 20:57:00,33.6,7.0,30.16,NW,315,2.0,3.0,32,-99.99,,,0.21,meteohub,2013-03-05 01:57:00,
2013-03-04 21:02:00,33.6,7.0,30.16,NW,315,2.0,3.0,32,-99.99,,,0.21,meteohub,2013-03-05 02:02:00,
2013-03-04 21:07:00,33.4,6.8,30.16,NW,315,3.0,3.0,32,-99.99,,,0.21,meteohub,2013-03-05 02:07:00,
2013-03-04 21:13:00,33.3,6.6,30.16,NNW,338,0.0,3.0,32,-99.99,,,0.21,meteohub,2013-03-05 02:13:00,
2013-03-04 21:18:00,33.1,6.4,30.16,NNW,338,2.0,3.0,32,-99.99,,,0.21,meteohub,2013-03-05 02:18:00,
2013-03-04 21:23:00,32.9,6.4,30.16,WNW,292,2.0,3.0,32,-99.99,,,0.21,meteohub,2013-03-05 02:23:00,
2013-03-04 21:28:00,32.7,6.3,30.16,NW,315,2.0,3.0,32,-99.99,,,0.21,meteohub,2013-03-05 02:28:00,
2013-03-04 21:33:00,32.7,6.3,30.16,NW,315,2.0,3.0,32,-99.99,,,0.21,meteohub,2013-03-05 02:33:00,
2013-03-04 21:38:00,32.7,6.3,30.16,NW,315,0.0,3.0,32,-99.99,,,0.21,meteohub,2013-03-05 02:38:00,
2013-03-04 21:43:00,32.7,6.3,30.16,NNE,22,0.0,2.0,32,-99.99,,,0.21,meteohub,2013-03-05 02:43:00,
2013-03-04 21:48:00,33.1,7.2,30.16,NW,315,2.0,2.0,33,-99.99,,,0.21,meteohub,2013-03-05 02:48:00,
2013-03-04 21:53:00,33.1,7.2,30.16,NW,315,0.0,2.0,33,-99.99,,,0.21,meteohub,2013-03-05 02:53:00,
2013-03-04 21:58:00,33.3,7.3,30.16,SSW,202,0.0,2.0,33,-99.99,,,0.21,meteohub,2013-03-05 02:58:00,
2013-03-04 22:03:00,33.6,7.7,30.16,South,180,2.0,2.0,33,-99.99,,,0.21,meteohub,2013-03-05 03:03:00,
2013-03-04 22:08:00,34.2,8.1,30.15,SSE,158,3.0,3.0,33,-99.99,,,0.21,meteohub,2013-03-05 03:08:00,
2013-03-04 22:13:00,35.1,8.2,30.14,SSE,158,4.0,4.0,32,-99.99,,,0.21,meteohub,2013-03-05 03:13:00,
2013-03-04 22:18:00,35.6,8.1,30.10,SSE,158,5.0,5.0,31,-99.99,,,0.21,meteohub,2013-03-05 03:18:00,
2013-03-04 22:23:00,35.8,8.2,30.10,SSE,158,4.0,5.0,31,-99.99,,,0.21,meteohub,2013-03-05 03:23:00,
2013-03-04 22:28:00,36.1,8.4,30.10,SSE,158,5.0,7.0,31,-99.99,,,0.21,meteohub,2013-03-05 03:28:00,
2013-03-04 22:33:00,36.1,8.4,30.10,SSE,158,5.0,7.0,31,-99.99,,,0.21,meteohub,2013-03-05 03:33:00,
2013-03-04 22:38:00,36.3,8.6,30.10,SSE,158,6.0,6.0,31,-99.99,,,0.21,meteohub,2013-03-05 03:38:00,
2013-03-04 22:43:00,36.3,8.6,30.10,SSE,158,6.0,8.0,31,-99.99,,,0.21,meteohub,2013-03-05 03:43:00,
2013-03-04 22:48:00,36.1,8.4,30.13,SSE,158,6.0,9.0,31,-99.99,,,0.21,meteohub,2013-03-05 03:48:00,
2013-03-04 22:53:00,36.0,7.7,30.14,SSE,158,6.0,9.0,30,-99.99,,,0.21,meteohub,2013-03-05 03:53:00,
2013-03-04 22:58:00,36.1,7.7,30.13,SSE,158,7.0,9.0,30,-99.99,,,0.21,meteohub,2013-03-05 03:58:00,
2013-03-04 23:03:00,36.1,8.4,30.13,SSE,158,6.0,9.0,31,-99.99,,,0.21,meteohub,2013-03-05 04:03:00,
2013-03-04 23:08:00,35.8,8.2,30.14,SSW,202,0.0,9.0,31,-99.99,,,0.21,meteohub,2013-03-05 04:08:00,
2013-03-04 23:13:00,35.6,8.1,30.14,SSW,202,3.0,8.0,31,-99.99,,,0.21,meteohub,2013-03-05 04:13:00,
2013-03-04 23:18:00,35.6,8.8,30.14,SSW,202,3.0,8.0,32,-99.99,,,0.21,meteohub,2013-03-05 04:18:00,
2013-03-04 23:23:00,36.1,9.1,30.13,East,90,1.0,5.0,32,-99.99,,,0.21,meteohub,2013-03-05 04:23:00,
2013-03-04 23:28:00,36.1,9.1,30.13,WSW,248,3.0,5.0,32,-99.99,,,0.21,meteohub,2013-03-05 04:28:00,
2013-03-04 23:33:00,36.1,9.1,30.13,ESE,112,2.0,6.0,32,-99.99,,,0.21,meteohub,2013-03-05 04:33:00,
2013-03-04 23:38:00,36.1,9.1,30.13,SE,135,3.0,6.0,32,-99.99,,,0.21,meteohub,2013-03-05 04:38:00,
2013-03-04 23:43:00,36.1,9.1,30.13,SSW,202,0.0,6.0,32,-99.99,,,0.21,meteohub,2013-03-05 04:43:00,
2013-03-04 23:49:00,35.8,9.5,30.10,SW,225,0.0,6.0,33,-99.99,,,0.21,meteohub,2013-03-05 04:49:00,
2013-03-04 23:54:00,35.8,9.5,30.10,NE,45,2.0,3.0,33,-99.99,,,0.21,meteohub,2013-03-05 04:54:00,
2013-03-04 23:59:00,36.1,9.9,30.10,NNW,338,0.0,3.0,33,-99.99,,,0.21,meteohub,2013-03-05 04:59:00,